Miscellaneous Local Product
Issued by NWS Hastings, NE

Home | Current Version | Previous Version | Text Only | Print | Product List | Glossary On
Versions: 1 2 3 4 5 6 7 8 9 10 11 12 13 14 15 16 17 18 19 20 21 22 23 24 25 26 27 28 29 30 31 32 33 34 35 36 37 38 39 40 41 42 43 44 45 46 47 48 49 50
000
AXUS43 KGID 231802
MISGRI

GID CWA HOURLY WEATHER ROUNDUP
NATIONAL WEATHER SERVICE HASTINGS NE
100 PM CDT WED AUG 23 2017

NOTE: "FAIR" INDICATES FEW OR NO CLOUDS BELOW 12,000 FEET WITH NO
SIGNIFICANT WEATHER AND/OR OBSTRUCTIONS TO VISIBILITY.

...SOUTH CENTRAL NEBRASKA...

CITY           SKY/WX    TMP DP  RH WIND       PRES   REMARKS
GRAND ISLAND   SUNNY     77  55  46 S14       30.15F
HASTINGS       SUNNY     75  53  46 S9        30.17F
KEARNEY        SUNNY     75  57  53 S14G20    30.16F
ORD            SUNNY     76  53  44 S15       30.11F
YORK           SUNNY     73  55  53 S10       30.15F
AURORA         SUNNY     75  53  46 S12G17    30.15F
LEXINGTON      SUNNY     77  51  40 S15       30.15F
HOLDREGE       SUNNY     74  50  42 S13       30.16F
HEBRON         SUNNY     77  52  41 S8        30.16F

...NEBRASKA PANHANDLE...

CITY           SKY/WX    TMP DP  RH WIND       PRES   REMARKS
CHADRON        SUNNY     84  56  38 VRB3      30.02F
ALLIANCE       SUNNY     79  59  50 S10       30.09F
SCOTTSBLUFF    SUNNY     78  59  51 SE8       30.09F
SIDNEY         SUNNY     82  56  40 S8        30.13F

...WESTERN AND NORTH CENTRAL NEBRASKA...

CITY           SKY/WX    TMP DP  RH WIND       PRES   REMARKS
VALENTINE      SUNNY     85  54  34 S18G25    30.03F
AINSWORTH      SUNNY     79  58  47 S18G25    30.07F
ONEILL         SUNNY     78  56  46 S15       30.09F
BROKEN BOW     SUNNY     79  48  33 S20G28    30.12F
IMPERIAL       SUNNY     80  58  46 S16G28    30.13F
NORTH PLATTE   SUNNY     78  55  44 S15G25    30.12F
MCCOOK         SUNNY     81  51  35 S13       30.14F

...EASTERN NEBRASKA...

CITY           SKY/WX    TMP DP  RH WIND       PRES   REMARKS
NORFOLK        SUNNY     75  57  53 S9        30.11F
SO SIOUX CITY  SUNNY     76  59  55 S7        30.13F
TEKAMAH        SUNNY     76  53  44 VRB6      30.13F
COLUMBUS       SUNNY     74  56  53 S9        30.15F
ALBION         MOSUNNY   75  60  58 S12G17    30.13F
OMAHA EPPLEY   SUNNY     77  52  41 S5        30.14F
OFFUTT AFB     SUNNY     77  53  43 S6        30.14F
MILLARD        SUNNY     77  55  46 S3        30.14F
LINCOLN        SUNNY     77  56  48 S8        30.16F
NEBRASKA CITY  SUNNY     74  56  53 CALM      30.16F
BEATRICE       SUNNY     77  53  42 S7        30.15F
FALLS CITY     SUNNY     76  54  46 VRB3      30.15F

...NORTHERN KANSAS...

CITY           SKY/WX    TMP DP  RH WIND       PRES   REMARKS
GOODLAND       SUNNY     78  61  55 S17G24    30.16F
HILL CITY      SUNNY     81  46  29 S12G18    30.16F
NORTON         CLEAR     81  39  22 S10G21    30.15F
PHILLIPSBURG   SUNNY     81  46  30 SE8       30.15F
SMITH CENTER   MOSUNNY   79  52  38 SE9       30.16F
HAYS             N/A     78  48  34 MISG        N/A
RUSSELL        SUNNY     79  45  29 S9G18     30.14F
CONCORDIA      SUNNY     77  52  41 VRB6      30.15F
SALINA         SUNNY     82  47  29 SE8       30.14F
TOPEKA         SUNNY     77  53  43 VRB3      30.14F



USA.gov is the U.S. government's official web portal to all federal, state and local government web resources and services.